Date String (YYYY-MM-DD hh:mm:ss) UTC,Instrument flags,Ambient pressure (hPa),Sample flow (lpm),Bypass flow (lpm),Sample temperature (°C),Ambient temperature (°C),ASC tube jacket temperature (°C),LED temperature (°C),Box temperature (°C),Sample RH (%),Span deviation,Mass concentration (μg/m³),Mass concentration (μg/m³),Mass concentration (μg/m³)
DateTimeUTC,F1_M11,P_M11,Q1_M11,Q2_M11,T1_M11,T2_M11,T3_M11,T4_M11,T5_M11,U1_M11,ZSPAN_M11,X0_M11,X2_M11,X1_M11
2022-06-02 20:00:00,,0827.0,4.98,0.00,29.8,28.7,00.0,38.7,31.6,23.7,-001.2,0017.79,0013.37,0012.90
2022-06-02 20:01:00,,0827.0,5.01,0.00,29.8,28.7,00.0,38.7,31.7,23.4,-001.1,0018.47,0013.35,0012.88
2022-06-02 20:02:00,,0826.9,5.00,0.00,29.8,28.8,00.0,38.7,31.7,23.6,-001.0,0018.98,0013.31,0012.85
2022-06-02 20:03:00,,0827.0,4.99,0.00,29.8,28.9,00.0,38.7,31.7,23.8,-001.1,0019.08,0013.26,0012.81
2022-06-02 20:04:00,,0826.9,5.00,0.00,29.8,28.9,00.0,38.7,31.7,23.3,-000.9,0019.73,0013.25,0012.82
2022-06-02 20:05:00,,0826.9,5.01,0.00,29.9,29.0,00.0,38.7,31.7,24.2,-000.8,0019.60,0013.19,0012.77
2022-06-02 20:06:00,,0826.9,5.00,0.00,29.9,29.0,00.0,38.7,31.8,23.2,-000.9,0019.62,0013.12,0012.71
2022-06-02 20:07:00,,0827.0,4.99,0.00,29.9,29.0,00.0,38.7,31.8,23.9,-000.7,0019.55,0013.00,0012.63
2022-06-02 20:08:00,,0827.0,5.00,0.00,29.9,29.1,00.0,38.8,31.8,24.6,-000.9,0019.51,0012.90,0012.49
2022-06-02 20:09:00,,0827.0,5.00,0.00,29.9,29.1,00.0,38.8,31.8,24.4,-000.8,0019.01,0012.80,0012.39
2022-06-02 20:10:00,,0827.0,4.99,0.00,30.0,29.1,00.0,38.8,31.9,22.7,-000.8,0018.80,0012.77,0012.36
2022-06-02 20:11:00,,0827.0,5.01,0.00,30.0,29.2,00.0,38.8,31.9,22.7,-000.8,0018.99,0012.75,0012.32
2022-06-02 20:12:00,,0827.0,5.01,0.00,30.0,29.2,00.0,38.8,31.9,22.7,-000.9,0018.17,0012.67,0012.24
2022-06-02 20:13:00,,0827.0,5.00,0.00,30.0,29.2,00.0,38.8,31.9,23.3,-000.8,0017.62,0012.55,0012.13
2022-06-02 20:14:00,,0827.0,4.99,0.00,30.0,29.3,00.0,38.8,31.9,23.8,-000.7,0017.35,0012.44,0012.01
2022-06-02 20:15:00,,0827.0,4.99,0.00,30.1,29.3,00.0,38.9,32.0,23.3,-000.9,0016.16,0012.31,0011.89
2022-06-02 20:16:00,,0827.0,5.00,0.00,30.1,28.8,00.0,38.8,31.8,23.0,-001.2,0015.67,0012.27,0011.82
2022-06-02 20:17:00,,0826.9,5.01,0.00,30.0,27.8,00.0,38.7,31.5,24.4,-001.2,0015.51,0012.19,0011.74
2022-06-02 20:18:00,,0826.9,5.00,0.00,29.9,27.3,00.0,38.7,31.4,24.1,-001.4,0015.31,0012.07,0011.61
2022-06-02 20:19:00,,0826.9,4.99,0.00,29.7,27.3,00.0,38.6,31.3,23.5,-001.2,0015.18,0011.97,0011.54
2022-06-02 20:20:00,,0826.9,5.01,0.00,29.7,27.3,00.0,38.6,31.3,23.5,-001.3,0015.06,0011.87,0011.47
2022-06-02 20:21:00,,0826.9,5.01,0.00,29.6,27.5,00.0,38.6,31.3,24.4,-001.2,0014.93,0011.72,0011.28
2022-06-02 20:22:00,,0826.8,5.00,0.00,29.6,27.7,00.0,38.6,31.3,23.7,-001.2,0014.64,0011.58,0011.13
2022-06-02 20:23:00,,0826.8,4.99,0.00,29.6,27.8,00.0,38.6,31.4,23.3,-001.2,0014.52,0011.48,0011.03
2022-06-02 20:24:00,,0826.9,5.00,0.00,29.6,28.0,00.0,38.6,31.4,23.9,-001.3,0014.48,0011.42,0010.98
2022-06-02 20:25:00,,0826.9,4.99,0.00,29.6,28.1,00.0,38.6,31.4,23.0,-001.2,0014.50,0011.38,0010.93
2022-06-02 20:26:00,,0826.8,5.00,0.00,29.6,28.2,00.0,38.6,31.4,23.1,-001.1,0014.49,0011.33,0010.87
2022-06-02 20:27:00,,0826.8,5.01,0.00,29.6,28.3,00.0,38.6,31.4,22.5,-000.9,0014.77,0011.26,0010.80
2022-06-02 20:28:00,,0826.8,5.00,0.00,29.6,28.4,00.0,38.5,31.5,22.3,-001.0,0014.84,0011.23,0010.79
2022-06-02 20:29:00,,0826.8,5.00,0.00,29.6,28.5,00.0,38.5,31.5,22.8,-000.8,0015.07,0011.26,0010.81
2022-06-02 20:30:00,,0826.9,5.01,0.00,29.6,28.6,00.0,38.5,31.5,23.2,-000.9,0015.56,0011.25,0010.78
2022-06-02 20:31:00,,0826.9,5.00,0.00,29.7,28.6,00.0,38.6,31.5,22.6,-001.1,0015.99,0011.29,0010.78
2022-06-02 20:32:00,,0827.0,5.00,0.00,29.7,28.7,00.0,38.6,31.6,22.8,-001.3,0016.47,0011.33,0010.83
2022-06-02 20:33:00,,0827.0,4.99,0.00,29.7,28.8,00.0,38.6,31.6,23.3,-001.6,0016.55,0011.34,0010.84
2022-06-02 20:34:00,,0826.9,4.99,0.00,29.7,28.8,00.0,38.6,31.6,23.9,-001.5,0016.67,0011.29,0010.76
2022-06-02 20:35:00,,0826.9,5.00,0.00,29.8,28.9,00.0,38.6,31.7,23.7,-001.5,0016.50,0011.15,0010.64
2022-06-02 20:36:00,,0826.8,5.00,0.00,29.8,28.9,00.0,38.6,31.7,22.5,-001.6,0016.95,0011.07,0010.56
2022-06-02 20:37:00,,0826.9,5.01,0.00,29.8,29.0,00.0,38.6,31.7,23.2,-001.8,0017.06,0011.01,0010.51
2022-06-02 20:38:00,,0826.7,4.99,0.00,29.8,29.0,00.0,38.6,31.7,23.1,-002.0,0017.10,0010.96,0010.46
2022-06-02 20:39:00,,0826.8,4.99,0.00,29.8,29.0,00.0,38.7,31.8,23.6,-001.8,0017.17,0010.91,0010.40
2022-06-02 20:40:00,,0826.8,5.00,0.00,29.9,29.1,00.0,38.7,31.7,24.3,-001.4,0017.20,0010.82,0010.29
2022-06-02 20:41:00,,0826.8,5.00,0.00,29.9,29.1,00.0,38.7,31.8,24.6,-001.2,0016.57,0010.71,0010.18
2022-06-02 20:42:00,,0826.8,5.00,0.00,29.9,29.1,00.0,38.7,31.8,23.3,-001.1,0016.09,0010.62,0010.11
2022-06-02 20:43:00,,0826.8,5.00,0.00,29.9,29.2,00.0,38.7,31.9,23.0,-001.1,0015.68,0010.54,0010.03
2022-06-02 20:44:00,,0826.7,4.99,0.00,30.0,29.2,00.0,38.7,31.9,23.2,-000.9,0015.90,0010.50,0009.99
2022-06-02 20:45:00,,0826.7,5.00,0.00,30.0,28.5,00.0,38.7,31.7,23.0,-001.1,0015.73,0010.49,0010.00
2022-06-02 20:46:00,,0826.7,5.01,0.00,29.9,27.9,00.0,38.6,31.5,23.4,-001.1,0015.86,0010.57,0010.06
2022-06-02 20:47:00,,0826.7,4.98,0.00,29.8,27.7,00.0,38.6,31.5,23.9,-001.2,0015.29,0010.58,0010.06
2022-06-02 20:48:00,,0826.7,5.01,0.00,29.7,27.8,00.0,38.6,31.4,24.0,-001.2,0015.06,0010.57,0010.02
2022-06-02 20:49:00,,0826.7,5.01,0.00,29.7,27.9,00.0,38.6,31.4,23.7,-001.2,0014.68,0010.52,0009.97
2022-06-02 20:50:00,,0826.7,4.99,0.00,29.7,28.0,00.0,38.6,31.4,22.9,-001.3,0014.55,0010.49,0009.96
2022-06-02 20:51:00,,0826.7,5.00,0.00,29.7,28.1,00.0,38.6,31.5,23.0,-001.4,0014.24,0010.50,0010.00
2022-06-02 20:52:00,,0826.8,5.01,0.00,29.7,28.3,00.0,38.6,31.5,23.0,-001.6,0014.34,0010.57,0010.05
2022-06-02 20:53:00,,0826.7,5.01,0.00,29.7,28.4,00.0,38.6,31.5,23.0,-001.5,0014.42,0010.62,0010.12
2022-06-02 20:54:00,,0826.7,5.00,0.00,29.7,28.5,00.0,38.6,31.6,23.4,-001.1,0014.41,0010.67,0010.19
2022-06-02 20:55:00,,0826.7,5.00,0.00,29.7,28.6,00.0,38.6,31.6,23.5,-000.9,0014.07,0010.67,0010.23
2022-06-02 20:56:00,,0826.7,5.00,0.00,29.7,28.7,00.0,38.6,31.6,23.1,-000.7,0014.20,0010.71,0010.26
2022-06-02 20:57:00,,0826.7,5.00,0.00,29.8,28.7,00.0,38.6,31.6,23.4,-000.6,0014.15,0010.71,0010.29
2022-06-02 20:58:00,,0826.7,4.99,0.00,29.8,28.8,00.0,38.6,31.7,23.7,-000.6,0014.44,0010.72,0010.30
2022-06-02 20:59:00,,0826.7,5.00,0.00,29.8,28.9,00.0,38.6,31.7,23.5,-000.4,0014.90,0010.76,0010.34
